El Paso, TX

11:14 AM MDT on July 24, 2016 (GMT -0600)
El Paso International

Weather History for KELP - March, 2014

Change the Weather History Date:

Saturday, March 22, 2014

  Actual Average Record
Temperature  
Mean Temperature 67 °F 58 °F  
Max Temperature 80 °F 72 °F 84 °F (1990)
Min Temperature 54 °F 44 °F 26 °F (1955)
Degree Days  
Heating Degree Days 0 7  
Month to date heating degree days 149 213  
Since 1 July heating degree days 1937 2316  
Cooling Degree Days 2 0  
Month to date cooling degree days 8 0  
Year to date cooling degree days 15 0  
Growing Degree Days 16 (Base 50)    
Moisture  
Dew Point 14 °F    
Average Humidity 14    
Maximum Humidity 20    
Minimum Humidity 7    
Precipitation  
Precipitation 0.00 in 0.00 in 0.39 in (1939)
Month to date precipitation 0.18 0.19  
Year to date precipitation 0.18 1.05  
Snow  
Snow 0.00 in - - ()
Month to date snowfall 0.0  
Since 1 July snowfall T  
Snow Depth 0.00 in    
Sea Level Pressure  
Sea Level Pressure 29.83 in    
Wind  
Wind Speed 9 mph (West)    
Max Wind Speed 26 mph    
Max Gust Speed 34 mph    
Visibility 10 miles    
Events      
T = Trace of Precipitation, MM = Missing Value Source: NWS Daily Summary

Daily Weather History Graph

Daily Weather History Graph

Search for Another Location

Airport or City:

Trip Planner

Search our weather history database for the weather conditions in past years. The results will help you decide how hot, cold, wet, or windy it might be!

Date:

Astronomy

Mar. 22, 2014 Rise Set
Actual Time 7:06 AM MDT 7:18 PM MDT
Civil Twilight 6:42 AM MDT 7:42 PM MDT
Nautical Twilight 6:13 AM MDT 8:11 PM MDT
Astronomical Twilight 5:45 AM MDT 8:40 PM MDT
Moon 12:23 AM MDT (3/22) 11:09 AM MDT (3/22)
Length of Visible Light 13h 00m
Length of Day
12h 11m
Waning Gibbous, 65% of the Moon is Illuminated
Mar 22
Waning Gibbous
Mar 23
Last Quarter
Mar 30
New
Apr 7
First Quarter
Apr 15
Full

Hourly Weather History & Observations

Time (MDT) Temp. Dew Point Humidity Pressure Visibility Wind Dir Wind Speed Gust Speed Precip Events Conditions
12:51 AM 69.1 °F 14.0 °F 12% 29.79 in 10.0 mi West 15.0 mph - N/A   Scattered Clouds
1:51 AM 68.0 °F 14.0 °F 12% 29.79 in 10.0 mi West 17.3 mph - N/A   Scattered Clouds
2:51 AM 66.9 °F 14.0 °F 13% 29.78 in 10.0 mi West 9.2 mph - N/A   Scattered Clouds
3:51 AM 64.0 °F 15.1 °F 15% 29.78 in 10.0 mi WNW 9.2 mph - N/A   Mostly Cloudy
4:51 AM 63.0 °F 14.0 °F 15% 29.80 in 10.0 mi WNW 9.2 mph - N/A   Mostly Cloudy
5:51 AM 60.1 °F 14.0 °F 16% 29.82 in 10.0 mi Calm Calm - N/A   Mostly Cloudy
6:51 AM 55.0 °F 16.0 °F 22% 29.86 in 10.0 mi SSE 6.9 mph - N/A   Mostly Cloudy
7:51 AM 55.9 °F 16.0 °F 21% 29.88 in 10.0 mi SSE 6.9 mph - N/A   Mostly Cloudy
8:51 AM 57.0 °F 16.0 °F 20% 29.91 in 10.0 mi West 5.8 mph - N/A   Overcast
9:51 AM 59.0 °F 15.1 °F 18% 29.93 in 10.0 mi Calm Calm - N/A   Overcast
10:51 AM 64.0 °F 17.1 °F 16% 29.91 in 10.0 mi Calm Calm - N/A   Mostly Cloudy
11:51 AM 66.9 °F 17.1 °F 15% 29.89 in 10.0 mi SSE 6.9 mph - N/A   Mostly Cloudy
12:51 PM 70.0 °F 15.1 °F 12% 29.85 in 10.0 mi Variable 4.6 mph - N/A   Mostly Cloudy
1:51 PM 72.0 °F 14.0 °F 11% 29.83 in 10.0 mi WSW 6.9 mph - N/A   Mostly Cloudy
2:51 PM 78.1 °F 10.0 °F 7% 29.78 in 10.0 mi WSW 11.5 mph 23.0 mph N/A   Mostly Cloudy
3:51 PM 78.1 °F 10.9 °F 8% 29.76 in 10.0 mi West 15.0 mph 27.6 mph N/A   Mostly Cloudy
4:51 PM 78.1 °F 12.0 °F 8% 29.74 in 10.0 mi West 18.4 mph 26.5 mph N/A   Mostly Cloudy
5:51 PM 79.0 °F 12.0 °F 8% 29.75 in 10.0 mi WSW 27.6 mph 34.5 mph N/A   Mostly Cloudy
6:51 PM 75.9 °F 12.0 °F 9% 29.77 in 10.0 mi West 19.6 mph - N/A   Scattered Clouds
7:51 PM 75.0 °F 12.0 °F 9% 29.79 in 10.0 mi West 12.7 mph 24.2 mph N/A   Partly Cloudy
8:51 PM 72.0 °F 14.0 °F 11% 29.82 in 10.0 mi NW 12.7 mph - N/A   Partly Cloudy
9:51 PM 66.9 °F 15.1 °F 14% 29.86 in 10.0 mi North 3.5 mph - N/A   Partly Cloudy
10:51 PM 61.0 °F 14.0 °F 16% 29.88 in 10.0 mi Variable 4.6 mph - N/A   Partly Cloudy
11:51 PM 63.0 °F 15.1 °F 16% 29.88 in 10.0 mi West 4.6 mph - N/A   Partly Cloudy